{"data":{"norad_id":57529,"epoch":"2026-09-20T22:25:00.772608Z","epoch_age_seconds":90356,"freshness":"FRESH","line1":"1 57529U 23115J   26263.93403672  .00000049  00000+0  11313-4 0  9998","line2":"2 57529  43.0065 338.7719 0001828 269.0916  90.9726 15.27576943172213","mean_motion":15.27576943,"eccentricity":0.0001828,"inclination_deg":43.0065,"raan_deg":338.7719,"arg_perigee_deg":269.0916,"mean_anomaly_deg":90.9726,"bstar":1.1313e-5,"rev_number":17221,"period_min":94.266937361073,"perigee_km":481.804023321,"apogee_km":484.31247630433,"semimajor_km":6861.1952498127,"source":"CELESTRAK","updated_at":"2026-09-21T09:00:33.638458Z"}}